Location: Andershausen
(51.8462°N, 9.8595°E)
Time: 23:47:54
(UTC+00:00)

ISS - Pass Details

Date: 18 November 2025
Orbit: 416 x 421 km, 51.6° (Epoch: 04 December)

Event Time Altitude Azimuth Distance (km) Brightness Sun altitude
Rises 16:21:41 0° 224° (SW) 2,362 1.4 -8.6°
Reaches altitude 10° 16:23:55 10° 213° (SSW) 1,499 -0.1 -8.9°
Maximum altitude 16:26:54 30° 151° (SSE) 778 -2.5 -9.4°
Enters shadow 16:29:28 13° 91° (E) 1,343 -1.8 -9.7°
